Location: Home
(42.5358°N, 72.7383°W)
Time: 10:24:25
(UTC-05:00)

S-56A Canister/Altair - Pass Details

Date: 03 December 2021
Orbit: 634 x 2499 km, 38.9° (Epoch: 22 January)

Event Time Altitude Azimuth Distance (km) Brightness Sun altitude
Rises 00:33:48 0° 243° (WSW) 5,047 - -66.8°
Reaches altitude 10° 00:37:41 10° 240° (WSW) 3,752 - -66.4°
Maximum altitude 00:46:26 53° 167° (SSE) 1,359 - -65.4°
Drops below altitude 10° 00:52:18 10° 91° (E) 2,541 - -64.7°
Sets 00:54:28 0° 86° (E) 3,320 - -64.5°
